Location: Maiden_LMO
(35.5760°N, 81.2120°W)
Time: 12:40:58
(UTC-04:00)

ADEOS II - Visible Passes

Search period start: 24 July 2016 00:00
Search period end: 03 August 2016 00:00
Orbit: 800 x 802 km, 98.3° (Epoch: 24 July)

Date Brightness Start Highest point End Pass type
(mag) Time Alt. Az. Time Alt. Az. Time Alt. Az.
24 Jul 2.3 05:46:36 10° NNE 05:51:53 80° ESE 05:57:08 10° S visible
25 Jul 3.2 05:20:30 10° NNE 05:25:30 43° E 05:30:29 10° S visible
26 Jul 4.2 04:54:49 10° NE 04:59:02 24° E 05:03:13 10° SSE visible
27 Jul 4.8 04:30:08 10° ENE 04:32:28 13° E 04:34:47 10° ESE visible
28 Jul 2.4 05:41:00 10° NNE 05:46:16 71° ESE 05:51:30 10° S visible
29 Jul 3.4 05:14:58 10° NNE 05:19:52 39° E 05:24:44 10° SSE visible
30 Jul 4.3 04:49:24 10° NE 04:53:23 21° E 04:57:19 10° SE visible
31 Jul 4.9 04:25:13 10° ENE 04:26:48 11° E 04:28:21 10° ESE visible
31 Jul 2.1 06:01:43 10° N 06:06:58 72° WNW 06:12:11 10° SSW visible
01 Aug 2.6 05:35:25 10° NNE 05:40:39 63° E 05:45:51 10° S visible
02 Aug 3.6 05:09:27 10° NNE 05:14:14 34° E 05:18:58 10° SSE visible
